Flag for Finland Weather past 2 weeks in Rovaniemi, Finland

32 °F

Light snow. Partly cloudy.

Feels Like: 25 °F
Forecast: 25 / 32 °F
Wind: 8 mph from East

Location: Rovaniemi Airport

Current Time: Nov 30, 2015 at 7:52:46 PM

Latest Report: Nov 30, 2015 at 7:20 PM

Visibility: N/A

Pressure: 29.00 "Hg

Humidity: 93%

Dew point: 30 °F

Location of RovaniemiLocation

Historic Weather in Rovaniemi — Graph


Rovaniemi temperature yesterday

Maximum temperature yesterday: 34 °F (at 12:20 PM)
Minimum temperature yesterday: 28 °F (at 9:20 AM)
Average temperature yesterday: 32 °F

Past Weeks' High & Low Weather Summary

High37 °F (Nov 28, 12:20 AM)100% (Nov 15, 6:20 PM)29.74 "Hg (Nov 15, 6:20 PM)
Low9 °F (Nov 22, 4:50 AM)74% (Nov 19, 6:20 PM)28.68 "Hg (Nov 27, 4:20 AM)
Average27 °F96%29.34 "Hg
* Reported Nov 15 6:20 PM — Nov 30 6:20 PM, Rovaniemi, Weather by CustomWeather, © 2015

Note: Actual official high and low records may vary slightly from our data, if they occured in-between our weather recording intervals... More about our weather records


Rovaniemi weather history for previous 24 hours

Time TempWeatherWind HumidityBarometerVisibility
6:20 PM
Mon, Nov 30
30 °FLight snow. Partly cloudy.8 mph100%29.03 "Hg2 mi
5:50 PM30 °FSnow. Ice fog.8 mph100%29.03 "Hg1 mi
5:20 PM30 °FLight snow. Ice fog.7 mph100%29.03 "Hg1 mi
4:50 PM32 °FSnow flurries. Mostly cloudy.7 mph93%29.06 "HgN/A
4:20 PM32 °FPartly cloudy.6 mph93%29.06 "HgN/A
3:50 PM32 °FLight snow. Overcast.7 mph93%29.06 "HgN/A
3:20 PM32 °FSnow flurries. Partly cloudy.7 mph93%29.06 "Hg4 mi
2:50 PM32 °FLight snow. Passing clouds.7 mph100%29.03 "HgN/A
2:20 PM32 °FPassing clouds.7 mph100%29.06 "HgN/A
1:50 PM32 °FLight rain. Partly sunny.7 mph100%29.03 "HgN/A
1:20 PM32 °FPartly sunny.8 mph100%29.03 "HgN/A
12:50 PM32 °FLight rain. Partly sunny.8 mph100%29.03 "HgN/A
12:20 PM32 °FPartly sunny.8 mph93%29.03 "HgN/A
11:50 AM32 °FPartly sunny.9 mph93%29.03 "HgN/A
11:20 AM32 °FPartly sunny.8 mph100%29.03 "HgN/A
10:50 AM32 °FPartly sunny.7 mph100%29.03 "HgN/A
10:20 AM32 °FPartly sunny.8 mph100%29.03 "HgN/A
8:50 AM32 °FSnow flurries. Partly cloudy.8 mph93%29.00 "Hg3 mi
8:20 AM32 °FLight snow. Passing clouds.8 mph93%29.00 "Hg2 mi
7:50 AM30 °FSnow flurries. Passing clouds.9 mph100%29.00 "Hg3 mi
7:20 AM30 °FLight snow. Partly cloudy.9 mph100%29.00 "Hg2 mi
6:50 AM30 °FLight snow. Overcast.9 mph100%29.00 "Hg2 mi
6:20 AM30 °FSnow flurries. Passing clouds.9 mph93%29.00 "Hg3 mi
5:20 AM30 °FPartly cloudy.9 mph93%29.00 "HgN/A
4:50 AM30 °FOvercast.10 mph93%29.03 "HgN/A
4:20 AM30 °FPassing clouds.10 mph93%29.03 "HgN/A
2:20 AM32 °FPartly cloudy.10 mph93%29.09 "HgN/A
1:50 AM32 °FMostly cloudy.8 mph93%29.09 "HgN/A
12:50 AM30 °FMostly cloudy.8 mph93%29.09 "HgN/A
12:20 AM30 °FPassing clouds.9 mph93%29.12 "HgN/A
11:50 PM
Sun, Nov 29
30 °FMostly cloudy.9 mph93%29.12 "HgN/A
11:20 PM30 °FPartly cloudy.12 mph93%29.12 "HgN/A
10:50 PM30 °FPartly cloudy.12 mph93%29.15 "HgN/A
10:20 PM30 °FPartly cloudy.9 mph93%29.15 "HgN/A
9:50 PM30 °FOvercast.8 mph93%29.15 "HgN/A
9:20 PM32 °FPassing clouds.10 mph87%29.15 "HgN/A
8:50 PM32 °FOvercast.9 mph93%29.18 "HgN/A
8:20 PM32 °FPassing clouds.12 mph93%29.18 "HgN/A
7:50 PM32 °FMostly cloudy.12 mph93%29.18 "HgN/A
7:20 PM32 °FPassing clouds.13 mph93%29.18 "HgN/A
Weather by CustomWeather, © 2015

See weather overviewHow to use our weather pages